RHINO YAMB-YAMB

Flight info

Callsign RHINO
Flight time N/A
Altitude 20000
Route PHNL0900
Aircraft FA18/L-ICAO/1200

Departure

Time 2026-04-17 04:33
Airport RAAF Base Amberley (YAMB)

Arrival

Time N/A
Airport RAAF Base Amberley (YAMB)
Time Latitude Longitude Altitude Speed Heading
2026-04-17 04:23 -27.62507 152.70297 91 ft 0 kts 342°
2026-04-17 04:25 -27.62485 152.70289 92 ft 0 kts 342°
2026-04-17 04:25 -27.62484 152.70288 92 ft 3 kts 342°
2026-04-17 04:25 -27.62446 152.70318 92 ft 16 kts 53°
2026-04-17 04:26 -27.62436 152.70351 94 ft 0 kts 75°
2026-04-17 04:26 -27.62429 152.70384 91 ft 12 kts 78°
2026-04-17 04:26 -27.62487 152.70441 93 ft 14 kts 158°
2026-04-17 04:26 -27.62547 152.70400 91 ft 8 kts 297°
2026-04-17 04:27 -27.62551 152.70439 92 ft 15 kts 109°
2026-04-17 04:27 -27.62656 152.70518 94 ft 23 kts 159°
2026-04-17 04:27 -27.62835 152.70598 92 ft 32 kts 157°
2026-04-17 04:27 -27.63070 152.70701 95 ft 40 kts 158°
2026-04-17 04:28 -27.63345 152.70825 93 ft 42 kts 159°
2026-04-17 04:28 -27.63603 152.70939 94 ft 37 kts 157°
2026-04-17 04:28 -27.63835 152.71039 94 ft 35 kts 159°
2026-04-17 04:28 -27.64052 152.71132 96 ft 27 kts 158°
2026-04-17 04:29 -27.64076 152.71143 95 ft 0 kts 158°
2026-04-17 04:29 -27.64090 152.71151 95 ft 6 kts 156°
2026-04-17 04:29 -27.64204 152.71201 97 ft 42 kts 160°
2026-04-17 04:30 -27.64519 152.71333 95 ft 48 kts 158°
2026-04-17 04:30 -27.64716 152.71427 97 ft 10 kts 156°
2026-04-17 04:30 -27.64762 152.71462 98 ft 7 kts 113°
2026-04-17 04:30 -27.64755 152.71514 97 ft 11 kts 77°
2026-04-17 04:31 -27.64717 152.71629 98 ft 19 kts 34°
2026-04-17 04:31 -27.64649 152.71612 97 ft 0 kts 340°
2026-04-17 04:32 -27.64235 152.71435 98 ft 186 kts 338°
2026-04-17 04:33 -27.62471 152.70675 442 ft 319 kts 340°
2026-04-17 04:33 -27.60144 152.69836 2064 ft 408 kts 342°
2026-04-17 04:33 -27.57036 152.68935 3838 ft 521 kts 350°
2026-04-17 04:33 -27.53061 152.68574 6461 ft 622 kts 359°
2026-04-17 04:34 -27.45768 152.69320 13880 ft 459 kts 35°
2026-04-17 04:34 -27.42977 152.71882 12700 ft 545 kts 38°
2026-04-17 04:34 -27.40334 152.74357 11008 ft 441 kts 38°
2026-04-17 04:35 -27.38149 152.76426 10424 ft 376 kts 38°
2026-04-17 04:35 -27.36332 152.78147 10314 ft 316 kts 38°
2026-04-17 04:35 -27.34629 152.79733 10208 ft 338 kts 38°
2026-04-17 04:35 -27.32639 152.81569 10024 ft 402 kts 38°
2026-04-17 04:36 -27.30340 152.83671 9993 ft 437 kts 38°
2026-04-17 04:36 -27.27979 152.85825 10439 ft 434 kts 38°
2026-04-17 04:36 -27.25633 152.87962 10858 ft 433 kts 37°
2026-04-17 04:36 -27.23266 152.90095 10825 ft 448 kts 37°
2026-04-17 04:37 -27.20757 152.92357 10075 ft 464 kts 38°
2026-04-17 04:37 -27.17977 152.94858 10004 ft 581 kts 38°
2026-04-17 04:37 -27.14537 152.97924 10435 ft 658 kts 37°
2026-04-17 04:37 -27.11283 153.00819 10810 ft 543 kts 37°
2026-04-17 04:38 -27.08575 153.03245 10934 ft 455 kts 37°
2026-04-17 04:38 -27.06300 153.05295 11066 ft 387 kts 37°
2026-04-17 04:38 -27.04410 153.07145 10880 ft 341 kts 51°
2026-04-17 04:38 -27.02896 153.09203 10711 ft 392 kts 49°
2026-04-17 04:39 -27.00839 153.11970 10757 ft 519 kts 49°
2026-04-17 04:39 -26.98325 153.15317 11006 ft 614 kts 49°
2026-04-17 04:39 -26.95389 153.19206 12215 ft 654 kts 49°
2026-04-17 04:39 -26.92344 153.23205 12653 ft 715 kts 49°
2026-04-17 04:40 -26.89024 153.27553 13523 ft 743 kts 49°
2026-04-17 04:40 -26.85786 153.31771 16011 ft 659 kts 48°
2026-04-17 04:40 -26.82671 153.35155 18165 ft 601 kts 31°
2026-04-17 04:40 -26.78977 153.36874 18893 ft 559 kts
2026-04-17 04:41 -26.75228 153.36814 19046 ft 526 kts 343°
2026-04-17 04:41 -26.71997 153.35196 18963 ft 500 kts 320°
2026-04-17 04:41 -26.69677 153.32446 18883 ft 477 kts 299°
2026-04-17 04:41 -26.68468 153.29088 18900 ft 458 kts 280°
2026-04-17 04:42 -26.68371 153.25611 19008 ft 441 kts 262°
2026-04-17 04:42 -26.69240 153.22393 19207 ft 427 kts 245°
2026-04-17 04:42 -26.70874 153.19693 19476 ft 414 kts 230°
2026-04-17 04:42 -26.73059 153.17625 19733 ft 410 kts 216°
2026-04-17 04:43 -26.75377 153.15800 19686 ft 402 kts 229°